DW1901 Weather Reports


time (UTC)temp
C
wind
direction
speed
KPH
gust
KPH
rain 1hr
cm
rain 24hr
cm
rain mn
cm
humidity
%
barometer
mb
20260505124422 17 360 0.0 4.8 0.00 0.03 0.03 74 1009.8
20260505122522 15 360 0.0 8.0 0.00 0.03 0.03 80 1010.1
20260505120642 13 360 4.8 8.0 0.00 0.03 0.03 82 1010.2
20260505114722 13 360 0.0 0.0 0.00 0.03 0.03 82 1010.0
20260505112822 12 360 0.0 1.6 0.00 0.03 0.03 82 1009.9
20260505110922 12 360 1.6 1.6 0.00 0.00 0.00 82 1010.1
20260505101222 10 360 0.0 0.0 0.00 0.00 0.00 82 1010.0
20260505095322 10 360 0.0 1.6 0.00 0.00 0.00 82 1009.8
20260505093442 10 360 0.0 0.0 0.00 0.00 0.00 82 1009.3
20260505091522 10 360 0.0 4.8 0.00 0.00 0.00 81 1009.2
20260505085622 10 360 0.0 1.6 0.00 0.00 0.00 81 1009.2
20260505083722 10 360 0.0 0.0 0.00 0.00 0.00 80 1009.2
20260505081822 10 360 0.0 0.0 0.00 0.00 0.00 80 1009.1
20260505075922 11 360 0.0 0.0 0.00 0.00 0.00 79 1009.3
20260505074042 11 360 0.0 0.0 0.00 0.00 0.00 78 1009.3
20260505072122 11 360 0.0 0.0 0.00 0.00 0.00 77 1009.3
20260505070222 11 360 0.0 0.0 0.00 0.00 0.00 75 1009.2
20260505064322 12 360 0.0 0.0 0.00 0.00 0.00 73 1009.1
20260505062502 12 360 0.0 0.0 0.00 0.00 0.00 72 1009.3
20260505060522 13 360 0.0 0.0 0.00 0.00 0.00 69 1009.5
20260505054622 13 360 0.0 0.0 0.00 0.00 0.00 66 1009.5
20260505052722 14 360 0.0 1.6 0.00 0.00 0.00 64 1009.6
20260505050821 15 360 0.0 1.6 0.00 0.00 0.00 61 1009.7
20260505041142 16 360 0.0 4.8 0.00 0.00 0.00 56 1009.7
20260505035625 16 360 0.0 9.7 0.00 0.00 0.00 54 1009.8
20260505033724 17 360 0.0 6.4 0.00 0.00 0.00 53 1009.8
20260505031844 17 360 4.8 9.7 0.00 0.00 0.00 52 1010.0
20260505025924 17 360 1.6 11.3 0.00 0.00 0.00 51 1010.0
20260505024025 17 360 0.0 11.3 0.00 0.00 0.00 51 1009.9
20260505022124 17 360 1.6 12.9 0.00 0.00 0.00 51 1010.1
20260505020224 18 360 3.2 12.9 0.00 0.00 0.00 50 1010.0
20260505014325 18 360 1.6 9.7 0.00 0.00 0.00 47 1009.9
20260505012424 19 360 1.6 6.4 0.00 0.00 0.00 40 1009.6
20260505010525 20 360 0.0 4.8 0.00 0.00 0.00 39 1009.3
20260505004624 20 360 4.8 8.0 0.00 0.00 0.00 38 1009.2
20260505002724 20 360 9.7 11.3 0.00 0.00 0.00 38 1008.8
20260505000824 20 360 1.6 9.7 0.00 0.00 0.00 37 1008.5
20260504234924 21 360 8.0 8.0 0.00 0.00 0.00 37 1008.1
20260504233024 21 360 0.0 1.6 0.00 0.00 0.00 36 1007.9
20260504231124 22 360 3.2 17.7 0.00 0.00 0.00 35 1007.7
20260504225225 22 360 3.2 16.1 0.00 0.00 0.00 33 1007.5
20260504223344 22 360 1.6 8.0 0.00 0.00 0.00 34 1007.6
20260504221424 22 360 3.2 9.7 0.00 0.00 0.00 33 1007.6
20260504215524 22 360 3.2 17.7 0.00 0.00 0.00 32 1007.9
20260504213624 22 360 6.4 12.9 0.00 0.00 0.00 33 1008.1
20260504211724 22 360 3.2 17.7 0.00 0.00 0.00 34 1008.1
20260504205824 22 360 6.4 16.1 0.00 0.00 0.00 34 1008.1
20260504203924 22 360 4.8 16.1 0.00 0.00 0.00 35 1008.2
20260504202024 22 360 12.9 16.1 0.00 0.00 0.00 33 1008.2
20260504200124 22 360 8.0 8.0 0.00 0.00 0.00 31 1008.4
20260504194224 22 360 1.6 20.9 0.00 0.00 0.00 32 1008.5
20260504192324 22 360 6.4 16.1 0.00 0.00 0.00 32 1008.7
20260504190424 22 360 4.8 11.3 0.00 0.00 0.00 34 1008.9
20260504184525 22 360 0.0 22.5 0.00 0.00 0.00 36 1009.2
20260504182624 22 360 4.8 16.1 0.00 0.00 0.00 35 1009.4
20260504180724 21 360 6.4 16.1 0.00 0.00 0.00 34 1009.4
20260504174825 21 360 4.8 20.9 0.00 0.00 0.00 36 1009.7
20260504172924 21 360 4.8 16.1 0.00 0.00 0.00 35 1010.1
20260504171024 20 360 8.0 16.1 0.00 0.00 0.00 37 1010.3